Regional Weather Roundup
Issued by NWS

Home | Current Version | Previous Version | Text Only | Print | Product List | Glossary On
Versions: 1 2 3 4 5 6 7 8 9 10 11 12 13 14 15 16 17 18 19 20 21 22 23 24 25 26 27 28 29 30 31 32 33 34 35 36 37 38 39 40 41 42 43 44 45 46 47 48 49 50
000
ASUS43 KLMK 010102
RWRKY
KENTUCKY REGIONAL WEATHER ROUNDUP
NATIONAL WEATHER SERVICE LOUISVILLE KY
800 PM EST SAT JAN 31 2015

NOTE "FAIR" INDICATES FEW OR NO CLOUDS BELOW 12,000 FEET
WITH NO SIGNIFICANT WEATHER AND/OR OBSTRUCTIONS TO VISIBILITY.

KYZ001>023-026-027-061>063-070>075-010200-
WESTERN AND SOUTH CENTRAL KENTUCKY

CITY           SKY/WX    TMP DP  RH WIND       PRES   REMARKS
PADUCAH        CLOUDY    41  25  53 E5        30.20F
HENDERSON      CLOUDY    39  25  56 E8        30.24F WCI  34
OWENSBORO      CLOUDY    39  28  65 E6        30.26F WCI  35
HOPKINSVILLE   CLOUDY    44  21  40 SE3       30.25F
BOWLING GREEN  CLOUDY    43  22  43 CALM      30.28R
GLASGOW        NOT AVBL
$$

KYZ024-025-028>034-038-045-046-053-010200-
NORTH CENTRAL KENTUCKY

CITY           SKY/WX    TMP DP  RH WIND       PRES   REMARKS
LOUISVILLE/SDF CLOUDY    41  21  44 E3        30.27F
LOUISVILLE/LOU CLOUDY    41  21  44 CALM      30.29F
FORT KNOX      CLOUDY    39  21  48 VRB2      30.25S
$$

KYZ035>037-039>044-047>052-055>060-089>105-010200-
NORTHEAST KENTUCKY

CITY           SKY/WX    TMP DP  RH WIND       PRES   REMARKS
LEXINGTON      CLOUDY    35  20  54 S3        30.29S
COVINGTON      CLOUDY    36  22  56 SW5       30.26F WCI  32
FRANKFORT      CLOUDY    35  20  54 CALM      30.28S
$$

KYZ054-064>069-076>088-106>120-010200-
SOUTHEAST KENTUCKY

CITY           SKY/WX    TMP DP  RH WIND       PRES   REMARKS
JACKSON        MOCLDY    37  14  38 CALM      30.28S
LONDON         CLOUDY    40  14  34 CALM      30.28S
SOMERSET       NOT AVBL
MIDDLESBORO    NOT AVBL
MONTICELLO     CLOUDY    38  24  57 CALM      30.30F
$$



USA.gov is the U.S. government's official web portal to all federal, state and local government web resources and services.